Location: Oberwangen
(47.4286°N, 8.9679°E)
Time: 11:51:37
(UTC+00:00)

Cosmos 1953 Rocket - Pass Details

Date: 24 October 2021
Orbit: 604 x 635 km, 82.5° (Epoch: 26 November)

Event Time Altitude Azimuth Distance (km) Brightness Sun altitude
Rises 19:58:26 0° 337° (NNW) 2,943 7.6 -36.9°
Reaches altitude 10° 20:01:11 10° 320° (NW) 2,026 6.8 -37.4°
Enters shadow 20:02:36 16° 304° (NW) 1,676 6.4 -37.6°
